Date,TemperatureHighF,TemperatureAvgF,TemperatureLowF,DewpointHighF,DewpointAvgF,DewpointLowF,HumidityHigh,HumidityAvg,HumidityLow,PressureMaxIn,PressureMinIn,WindSpeedMaxMPH,WindSpeedAvgMPH,GustSpeedMaxMPH,PrecipitationSumIn
2013-11-3,63.5,53.9,41.8,45.2,40.3,37.8,94,62,43,30.41,30.23,2,0,5,0.01
2013-11-4,60.6,47.3,34.9,39.6,36.3,33.1,93,69,38,30.59,30.40,3,0,7,0.00
2013-11-5,58.8,49.4,37.5,48.7,41.7,32.7,83,75,64,30.61,30.48,2,0,5,0.00
2013-11-6,72.6,58.9,49.4,58.0,52.2,47.2,93,80,58,30.48,30.17,2,0,5,0.00
2013-11-7,71.4,56.2,45.6,61.7,48.7,35.3,95,78,42,30.19,30.00,3,0,7,0.00
2013-11-8,60.4,46.4,34.0,35.4,32.2,26.1,91,62,29,30.39,30.19,3,0,4,0.00
2013-11-9,60.7,45.6,29.1,41.3,33.5,27.3,93,67,36,30.46,30.29,2,0,7,0.00
2013-11-10,66.6,46.6,39.3,44.5,38.8,35.9,91,76,36,30.30,30.23,2,0,7,0.00
2013-11-11,61.7,46.6,34.1,37.6,33.7,29.9,92,64,33,30.42,30.23,3,0,7,0.00
2013-11-12,67.7,43.6,32.4,44.1,35.0,22.3,94,76,33,30.53,30.13,4,1,9,0.09
2013-11-13,46.4,34.4,23.6,26.6,22.9,20.3,91,65,38,30.63,30.52,3,0,8,0.01
2013-11-14,57.7,37.5,22.1,31.8,26.0,20.2,93,69,29,30.58,30.42,3,1,6,0.00
2013-11-15,61.4,46.8,28.2,51.0,40.1,25.8,92,79,51,30.43,30.26,2,0,3,0.04
2013-11-16,52.4,51.7,51.3,50.4,49.6,49.3,93,93,92,30.29,30.27,0,0,0,0.00
2013-11-17,72.0,65.7,57.3,63.8,61.1,55.6,94,86,70,30.21,29.97,3,1,6,0.06
2013-11-18,76.8,67.1,53.9,66.2,53.2,32.8,93,65,33,30.03,29.88,4,1,7,0.11
2013-11-19,53.6,47.5,41.9,35.7,31.5,28.9,64,54,44,30.32,30.03,2,0,4,0.00
2013-11-20,54.0,50.2,46.3,35.8,34.2,32.7,59,54,50,30.48,30.42,2,2,3,0.00
2013-11-21,54.2,49.8,45.4,47.8,42.5,37.2,79,76,73,30.51,30.47,1,0,1,0.00
2013-11-23,-200.0,0.0,200.0,-99.9,-99.9,-99.9,0,0,100,30.25,30.10,0,-999,0,0.00
2013-11-24,42.0,12.0,26.1,15.3,-58.7,-99.9,62,16,26,30.61,30.25,4,-628,6,0.00
2013-11-25,45.2,33.4,19.1,19.2,14.5,9.8,87,50,25,30.67,30.42,3,0,6,0.00
2013-11-26,51.1,40.7,33.7,49.4,33.8,14.0,94,80,34,30.42,29.67,5,1,7,1.40
2013-11-27,47.0,40.9,29.3,45.4,35.5,20.4,94,82,58,30.28,29.60,4,1,16,0.34
2013-11-28,47.0,32.1,20.7,27.5,23.1,18.7,93,72,38,30.57,30.28,2,0,4,0.00
2013-11-29,54.2,37.5,23.4,35.0,26.6,21.7,94,69,34,30.67,30.55,3,0,5,0.00
2013-11-30,50.3,38.3,28.4,30.9,27.6,24.1,89,67,44,30.71,30.45,3,0,6,0.00